Weather History for Eagle, AK

Change the Weather History Date:

Thursday, April 11, 2013

  Actual Average (PABN) Record (PABN)
Temperature  
Mean Temperature 2 °F -  
Max Temperature 21 °F 32 °F 44 °F (2012)
Min Temperature -18 °F 20 °F 1 °F (2014)
Degree Days  
Heating Degree Days 64    
Moisture  
Dew Point -10 °F    
Average Humidity 57    
Maximum Humidity 78    
Minimum Humidity 36    
Precipitation  
Precipitation 0.00 in - - ()
Sea Level Pressure  
Sea Level Pressure 30.05 in    
Wind  
Wind Speed 1 mph (North)    
Max Wind Speed 7 mph    
Max Gust Speed -    
Visibility 10 miles    
Events      
Averages and records for this station are not official NWS values.
T = Trace of Precipitation, MM = Missing Value Source: NWS Daily Summary

Daily Weather History Graph

Daily Weather History Graph

Search for Another Location

Airport:

Trip Planner

Search our weather history database for the weather conditions in past years. The results will help you decide how hot, cold, wet, or windy it might be!

Date:

Astronomy

Apr. 11, 2013 Rise Set
Actual Time 6:03 AM AKDT 8:49 PM AKDT
Civil Twilight 5:07 AM AKDT 9:45 PM AKDT
Nautical Twilight 3:49 AM AKDT 11:06 PM AKDT
Astronomical Twilight 1:58 AM AKDT 12:52 AM AKDT
Moon 6:05 AM AKDT (4/11) 11:22 PM AKDT (4/11)
Length of Visible Light 16h 37m
Length of Day
14h 46m
New Moon, 2% of the Moon is Illuminated
Apr 11
New Moon
Apr 18
First Quarter
Apr 25
Full
May 2
Last Quarter
May 9
New

Hourly Weather History & Observations

Time (AKDT) Temp. Windchill Dew Point Humidity Pressure Visibility Wind Dir Wind Speed Gust Speed Precip Events Conditions
12:53 AM -11.0 °F - -16.1 °F 78% 29.90 in 10.0 mi Calm Calm - N/A   Clear
1:53 AM -13.0 °F - -18.0 °F 78% 29.93 in 10.0 mi Calm Calm - N/A   Clear
2:53 AM -15.0 °F - -20.9 °F 75% 29.95 in 10.0 mi Calm Calm - N/A   Partly Cloudy
3:53 AM -17.0 °F - -23.1 °F 74% 29.98 in 10.0 mi Calm Calm - N/A   Mostly Cloudy
4:53 AM -18.0 °F - -24.0 °F 74% 30.00 in 10.0 mi Calm Calm - N/A   Scattered Clouds
5:53 AM -18.9 °F - -25.1 °F 74% 30.02 in 10.0 mi Calm Calm - N/A   Scattered Clouds
6:53 AM -18.9 °F - -26.0 °F 70% 30.03 in 10.0 mi Calm Calm - N/A   Clear
7:53 AM -8.0 °F - -14.1 °F 75% 30.04 in 10.0 mi Calm Calm - N/A   Clear
8:53 AM -4.0 °F - -13.0 °F 65% 30.06 in 10.0 mi Calm Calm - N/A   Clear
9:53 AM 3.9 °F - -6.0 °F 64% 30.06 in 10.0 mi Calm Calm - N/A   Clear
10:53 AM 10.0 °F - -4.0 °F 53% 30.06 in 10.0 mi Calm Calm - N/A   Clear
11:53 AM 15.1 °F - -2.9 °F 45% 30.06 in 10.0 mi Calm Calm - N/A   Clear
12:53 PM 18.0 °F 12.7 °F -2.9 °F 40% 30.06 in 10.0 mi NNE 3.5 mph - N/A   Clear
1:53 PM 19.9 °F - -2.0 °F 38% 30.06 in 10.0 mi Calm Calm - N/A   Clear
2:53 PM 21.0 °F 16.2 °F -2.0 °F 36% 30.06 in 10.0 mi NE 3.5 mph - N/A   Clear
3:53 PM 21.0 °F 13.4 °F -0.9 °F 38% 30.06 in 10.0 mi NNE 5.8 mph - N/A   Clear
4:53 PM 21.0 °F 13.4 °F -0.0 °F 40% 30.05 in 10.0 mi North 5.8 mph - N/A   Scattered Clouds
5:53 PM 19.9 °F 11.1 °F -0.0 °F 42% 30.06 in 10.0 mi NNE 6.9 mph - N/A   Overcast
6:53 PM 19.0 °F 12.3 °F -0.9 °F 42% 30.08 in 10.0 mi North 4.6 mph - N/A   Mostly Cloudy
7:53 PM 18.0 °F 9.8 °F -2.9 °F 40% 30.09 in 10.0 mi North 5.8 mph - N/A   Clear
8:53 PM 10.0 °F - -2.9 °F 56% 30.12 in 10.0 mi Calm Calm - N/A   Clear
9:53 PM 7.0 °F -1.7 °F -7.1 °F 53% 30.15 in 10.0 mi West 4.6 mph - N/A   Clear
10:53 PM 3.0 °F -8.0 °F -8.0 °F 60% 30.17 in 10.0 mi West 5.8 mph - N/A   Clear
11:53 PM 1.9 °F - -8.0 °F 63% 30.20 in 10.0 mi Calm Calm - N/A   Clear